User: anonymous   Login
Location: Beaurevoir
(49.9971°N, 3.3085°E)
Time: 22:18:45
(UTC+00:00)
Language:

MSX - Orbit

View from above orbital plane
View from above orbital plane
View from above satellite
View from above satellite

Ground track
Ground track

The orbit data is extracted from the following two-line orbital elements,

1 23851U 96024A   24206.39208767  .00000227  00000-0  18935-3 0  9996
2 23851  98.9703 144.9550 0007383 355.1582   4.9509 13.98246663441526
Epoch (UTC): 24 July 2024 09:24:36
Eccentricity: 0.0007383
inclination: 98.9703°
perigee height: 894 km
apogee height: 905 km
right ascension of ascending node: 144.9550°
argument of perigee: 355.1582°
revolutions per day: 13.98246663
mean anomaly at epoch: 4.9509°
orbit number at epoch: 44152

The dashed part of the orbit path shows where the satellite is in the earth's shadow,  

DLR